Location: Deerlick Astronomy Village
(33.5614°N, 82.7631°W)
Time: 08:25:20
(UTC-04:00)

Iridium 66 - Visible Passes

Search period start: 24 July 2014 00:00
Search period end: 03 August 2014 00:00
Orbit: 776 x 779 km, 86.4° (Epoch: 23 July)

Date Brightness Start Highest point End Pass type
(mag) Time Alt. Az. Time Alt. Az. Time Alt. Az.
24 Jul 7.9 01:32:45 25° NNE 01:32:45 25° NNE 01:35:03 10° NNE visible
24 Jul 8.4 03:13:14 13° NW 03:13:14 13° NW 03:14:13 10° NW visible
25 Jul 8.3 00:59:23 16° NE 00:59:23 16° NE 01:00:50 10° NNE visible
25 Jul 8.1 02:39:51 21° NW 02:39:51 21° NW 02:41:53 10° NNW visible
26 Jul 7.9 02:06:28 27° NNW 02:06:28 27° NNW 02:08:49 10° N visible
27 Jul 7.9 01:33:05 26° NNE 01:33:05 26° NNE 01:35:20 10° N visible
28 Jul 8.2 00:59:41 20° NE 00:59:41 20° NE 01:01:26 10° NNE visible
28 Jul 8.4 02:40:09 15° NW 02:40:09 15° NW 02:41:24 10° NNW visible
29 Jul 8.5 00:26:17 12° NE 00:26:17 12° NE 00:26:55 10° NE visible
29 Jul 8.1 02:06:45 22° NNW 02:06:45 22° NNW 02:08:42 10° NNW visible
30 Jul 8.0 01:33:21 25° N 01:33:21 25° N 01:35:27 10° N visible
31 Jul 8.1 00:59:56 22° NNE 00:59:56 22° NNE 01:01:49 10° NNE visible
31 Jul 8.7 02:40:24 10° NW 02:40:24 10° NW 02:40:27 10° NW visible
01 Aug 8.4 00:26:31 16° NE 00:26:31 16° NE 00:27:43 10° NNE visible
01 Aug 8.4 02:06:59 17° NW 02:06:59 17° NW 02:08:23 10° NNW visible
02 Aug 8.2 01:33:33 22° NNW 01:33:33 22° NNW 01:35:26 10° N visible
